Location: Baller�as
(41.9020°N, 0.1554°W)
Time: 12:36:43
(UTC+00:00)

Meteor 1-5 Rocket - Pass Details

Date: 10 August 2020
Orbit: 788 x 916 km, 81.2° (Epoch: 21 September)

Event Time Altitude Azimuth Distance (km) Brightness Sun altitude
Exits shadow 22:17:28 80° 136° (SE) 933 4.2 -27.7°
Maximum altitude 22:17:41 82° 98° (E) 929 4.2 -27.7°
Drops below altitude 10° 22:23:40 10° 12° (NNE) 2,603 7.3 -28.2°
Sets 22:26:07 0° 11° (NNE) 3,538 8.2 -28.4°
